Regional Weather Roundup
Issued by NWS

Home | Current Version | Previous Version | Text Only | Print | Product List | Glossary Off
Versions: 1 2 3 4 5 6 7 8 9 10 11 12 13 14 15 16 17 18 19 20 21 22 23 24 25 26 27 28 29 30 31 32 33 34 35 36 37 38 39 40 41 42 43 44 45 46 47 48 49 50

000
ASUS45 KABQ 260501
RWRNM
WEATHER ROUNDUP FOR NEW MEXICO
NATIONAL WEATHER SERVICE ALBUQUERQUE NM
1100 PM MDT SAT APR 25 2015

NOTE: "FAIR" MEANS FEW OR NO CLOUDS BELOW 12,000 FEET AGL WITH NO
       SIGNIFICANT WEATHER OR OBSTRUCTIONS TO VISION.

      THIS PRODUCT IS RELEASED AS TWO VERSIONS.  ONE VERSION NEAR
      THE TOP OF THE HOUR CONTAINING PRELIMINARY DATA FROM ALBUQUERQUE
      AND OTHER STATIONS.  A FINAL VERSION WITH ADDITIONAL DATA IS
      ISSUED ABOUT 10 MINUTES AFTER THE HOUR.

NMZ501-503-504-510>518-260600-
NORTHWEST PLATEAU/NORTHCENTRAL MOUNTAINS

CITY           SKY/WX    TMP DP  RH WIND       PRES   REMARKS
FARMINGTON     LGT RAIN  50  36  58 NW16G23   29.78R
LOS ALAMOS     MOCLDY    49  28  44 W14       29.86S
SANTA FE       CLOUDY    52  26  36 SE6       29.82S
TAOS           CLOUDY    45  23  42 W5        29.85F
ANGEL FIRE     FAIR      28  22  79 CALM      29.91S

$$
NMZ402-403-502-505>509-260600-
WESTCENTRAL MOUNTAINS/SOUTHWEST MOUNTAINS

CITY           SKY/WX    TMP DP  RH WIND       PRES   REMARKS
GALLUP         LGT RAIN  43  37  79 SW17G28   29.87R
GRANTS         CLOUDY    52  24  33 SW16G23   29.87R
SILVER CITY      N/A     50  25  37 NW5       29.88S

$$
NMZ407-409-411-412-260600-
SOUTHERN DESERTS

CITY           SKY/WX    TMP DP  RH WIND       PRES   REMARKS
LORDSBURG      FAIR      63  23  22 SW12G17   29.82S
DEMING         PTCLDY    59  22  24 SW8       29.83R
LAS CRUCES     CLEAR     63  20  19 SW9       29.83S
ALAMOGORDO     MOCLDY    63  21  20 SE12      29.81F
T OR C         MOCLDY    60  23  24 SW7       29.80S

$$
NMZ519>523-260600-
CENTRAL VALLEYS/CENTRAL HIGHLANDS

CITY           SKY/WX    TMP DP  RH WIND       PRES   REMARKS
ALBUQUERQUE    MOCLDY    62  29  28 S7        29.80S
DOUBLE EAGLE   MOCLDY    53  30  41 W9        29.82S
MORIARTY ARPT  FAIR      45  22  40 E5        29.85R
CLINES CORNERS MOCLDY    46  25  43 W14       29.85R
BELEN          FAIR      56  26  31 W6        29.80S
SOCORRO        NOT AVBL

$$
NMZ524>526-539-540-260600-
SOUTHCENTRAL MOUNTAINS

CITY           SKY/WX    TMP DP  RH WIND       PRES   REMARKS
RUIDOSO        NOT AVBL

$$
NMZ527>531-260600-
NORTHEAST HIGHLANDS/NORTHEAST PLAINS

CITY           SKY/WX    TMP DP  RH WIND       PRES   REMARKS
LAS VEGAS      PTCLDY    47  22  37 S3        29.83F
RATON          CLEAR     50  24  36 VRB5      29.77S
CLAYTON        PTCLDY    54  28  36 W9        29.72F

$$
NMZ532>537-260600-
EASTCENTRAL PLAINS

CITY           SKY/WX    TMP DP  RH WIND       PRES   REMARKS
TUCUMCARI      CLEAR     55  26  32 W6        29.71S
CANNON AFB     NOT AVBL
CLOVIS AIRPORT PTCLDY    52  27  37 SW9       29.75S

$$
NMZ028-029-538-260600-
SOUTHEAST PLAINS

CITY           SKY/WX    TMP DP  RH WIND       PRES   REMARKS
ROSWELL        PTCLDY    54  27  35 SW7       29.74R
ARTESIA        PTCLDY    54  21  28 SW9       29.77S
CARLSBAD       CLEAR     55  24  30 SW5       29.74S
HOBBS          CLEAR     57  23  26 SW6       29.78F


$$


USA.gov is the U.S. government's official web portal to all federal, state and local government web resources and services.